Regional Weather Roundup
Issued by NWS Kansas City/Pleasant Hill, MO

Home | Current Version | Previous Version | Graphics & Text | Print | Product List | Glossary Off
Versions: 1 2 3 4 5 6 7 8 9 10 11 12 13 14 15 16 17 18 19 20 21 22 23 24 25 26 27 28

000
ASUS43 KEAX 231310
RWREAX

WEATHER ROUNDUP FOR EASTERN KANSAS AND NORTHWEST MISSOURI
NATIONAL WEATHER SERVICE KANSAS CITY/PLEASANT HILL MO
800 AM CDT SAT SEP 23 2017

KSZ040-057-103>105-MOZ028-029-037-043-231400-
...KANSAS CITY METROPOLITAN AREA...

CITY           SKY/WX    TMP DP  RH WIND       PRES   REMARKS
K.C. INTL      PTCLDY    71  68  90 S6        30.01R
K.C. DOWNTOWN  CLEAR     75  69  81 S8        30.00R
LEES SUMMIT    CLEAR     72  68  87 S8        30.03R
OLATHE - IXD   CLEAR     70  67  90 S7        30.02R
OLATHE - OJC   CLEAR     68  68 100 SE6       30.02R
LAWRENCE       CLEAR     69  68  96 E5        30.00R

$$

MOZ001>008-011>017-020>025-030>033-038>040-044>046-053-054-231400-
...NORTHERN AND CENTRAL MISSOURI...

CITY           SKY/WX    TMP DP  RH WIND       PRES   REMARKS
ST. JOSEPH     CLEAR     71  69  93 S6        29.99R
MOSBY          SUNNY     68  66  94 CALM      30.01R
WARRENSBURG    SUNNY     68  64  88 CALM      30.02R
WHITEMAN AFB   SUNNY     70  70 100 S5        30.02R
CLINTON        SUNNY     66  66 100 E3        30.04R FOG
SEDALIA          N/A     71  69  93 SE3       30.05R
WARSAW         NOT AVBL
CHILLICOTHE      N/A     70  68  93 CALM      30.03R
KIRKSVILLE     SUNNY     69  65  86 SE3       30.06R

$$

MOZ041-047>049-056>058-063>065-088>090-097-231400-
...EASTERN AND SOUTHERN MISSOURI...

CITY           SKY/WX    TMP DP  RH WIND       PRES   REMARKS
ST. LOUIS INTL MOSUNNY   73  68  84 E5        30.07R
SPIRIT OF STL  SUNNY     68  67  96 CALM      30.05R
COLUMBIA       SUNNY     70  67  90 SE6       30.06R
JEFFERSON CITY SUNNY     67  64  90 CALM      30.05R
ROLLA          SUNNY     72  67  84 S7        30.08R
OSAGE BEACH    MOSUNNY   69  66  90 SE3       30.07R
SPRINGFIELD    SUNNY     71  68  90 SE5       30.05R
JOPLIN         CLEAR     71  68  90 SE3       30.03R
WEST PLAINS    SUNNY     68  65  90 CALM      30.09R

$$

IAZ060-094-KSZ022-034>040-054-083-096-NEZ052-066-093-231400-
...KANSAS...SOUTHEAST NEBRASKA AND IOWA...

CITY           SKY/WX    TMP DP  RH WIND       PRES   REMARKS
TOPEKA         CLEAR     69  68  96 E6        29.99R
MANHATTAN      CLEAR     73  66  78 SW8       29.95R
EMPORIA        CLEAR     68  65  90 S8        29.99R
CHANUTE        CLEAR     69  67  93 SE6       30.02R
WICHITA        PTCLDY    70  66  87 SE7       29.96R
OMAHA          MOCLDY    73  67  81 S9        29.96R
LINCOLN        CLEAR     71  67  87 S9        29.94R
FALLS CITY     CLEAR     69  66  90 SE3       29.97R
LAMONI         CLEAR     69  67  93 S7        30.03R
DES MOINES     PTCLDY    72  67  84 SE8       30.01R

$$





USA.gov is the U.S. government's official web portal to all federal, state and local government web resources and services.